[[{"header":{"parameterUnit":"m.s-1","parameterCategory":1,"la1":30.2991,"la2":30.254,"lo1":-89.0895,"lo2":-89.0444,"dy":0.0017,"dx":0.0017,"nx":28,"ny":28,"refTime":"2023-08-12T03:00:00:Z","depth":0,"parameterNumber":2,"parameterNumberName":"U-component_of_WINDS"},"data":[0,0,0,0,0,0,0,0,0,0,0,0,0,0,0,0,0,0,0,0,0,0,0,0,0,0,0,0,0,0,0,0,0,0,0,0,0,0,0,0,0,0,0,0,0,0,0,0,0,0,0,0,0,0,0,0,0,0,1.3716,1.3718,0,1.3894,1.3896,1.3899,1.3956,1.3956,1.3955,1.3954,1.4137,1.4142,1.4148,0,0,0,0,0,0,0,0,0,0,0,0,0,1.3426,1.3431,1.3716,1.3718,1.3721,1.3894,1.3897,1.3899,1.3957,1.3956,1.3955,1.3954,1.4135,1.4141,1.4148,0,0,0,0,0,0,0,0,0,0,0,0,0,1.3573,1.3433,1.3716,1.377,1.3777,1.3894,1.3897,1.39,1.3957,1.3956,1.3954,1.3953,1.4133,1.4141,1.4149,1.4225,0,0,1.4175,1.4178,0,0,0,0,0,0,0,0,1.3564,1.3583,1.376,1.3767,1.3774,1.3902,1.3861,1.4009,1.3957,1.3888,1.3954,1.3953,1.406,1.4074,1.411,1.4233,1.4241,1.4175,1.4181,1.4184,1.4187,0,0,0,0,0,0,0,1.3554,1.3576,1.3787,1.3763,1.3771,1.3786,1.3805,1.3889,1.3978,1.3894,1.3899,1.3919,1.4063,1.4102,1.4115,1.4244,1.4175,1.4183,1.4188,1.4191,1.4437,1.4439,0,0,0,0,0,0,1.3535,1.3567,1.3781,1.3792,1.3664,1.3792,1.3814,1.3862,1.3978,1.3994,1.392,1.3921,1.4088,1.4105,1.4121,1.4217,1.4184,1.4192,1.4197,1.4436,1.4438,1.4439,0,0,0,0,0,0,1.3528,1.3553,1.3774,1.3681,1.371,1.3798,1.3852,1.3866,1.3905,1.3997,1.4013,1.3943,1.4088,1.4109,1.4198,1.4224,1.4196,1.4203,1.4434,1.4436,1.4438,1.4408,0,0,0,0,0,0,1.352,1.3551,1.358,1.3681,1.3715,1.3848,1.3854,1.3871,1.3919,1.3922,1.4023,1.4038,1.4088,1.4185,1.4207,1.4235,1.421,1.4432,1.4435,1.4438,1.4407,1.4409,1.4411,0,0,0,0,0,1.3509,1.3565,1.3581,1.3607,1.3754,1.3849,1.3868,1.3925,1.3921,1.3951,1.4011,1.4035,1.4218,1.4194,1.4218,1.425,1.4431,1.4434,1.4437,1.4406,1.4409,1.4411,0,0,0,0,0,0,1.3464,1.3579,1.3599,1.3689,1.3759,1.3859,1.3899,1.3925,1.3998,1.3998,1.4065,1.4087,1.4171,1.4219,1.4191,1.4328,1.4325,1.4334,1.4293,1.4296,1.4298,1.4284,1.4217,0,0,0,0,0,1.3465,1.3533,1.3629,1.3699,1.3734,1.381,1.3854,1.3891,1.3966,1.3996,1.4062,1.4134,1.4208,1.4255,1.4328,1.4415,1.4437,1.4448,1.445,1.4451,1.4457,1.4506,1.4512,1.445,1.445,1.445,0,0,1.3467,1.3538,1.3577,1.3692,1.3751,1.382,1.3835,1.3907,1.3958,1.4007,1.4095,1.4146,1.4231,1.4319,1.4361,1.4362,1.4479,1.4455,1.4455,1.4461,1.451,1.4516,1.4521,1.4453,1.4452,1.4452,0,0,1.3505,1.3566,1.363,1.3689,1.3778,1.3828,1.3844,1.394,1.3976,1.4065,1.4103,1.4165,1.4291,1.435,1.4396,1.4456,1.4481,1.4478,1.4487,1.4534,1.4539,1.4543,1.4564,1.4571,1.4484,1.4484,1.4484,0,1.3496,1.3601,1.366,1.3731,1.378,1.3828,1.3894,1.3948,1.4055,1.4088,1.4088,1.4246,1.4307,1.4409,1.4424,1.446,1.4479,1.4467,1.4533,1.4538,1.4544,1.4564,1.4572,1.4483,1.4483,1.4483,1.4484,0,1.3585,1.3657,1.3699,1.3802,1.3856,1.3924,1.3993,1.4041,1.4074,1.4124,1.4214,1.4289,1.4377,1.4404,1.4437,1.4511,1.4509,1.452,1.4518,1.4547,1.4568,1.4576,1.4482,1.4482,1.4482,1.4483,0,0,1.3599,1.3734,1.3748,1.3795,1.3897,1.3954,1.4024,1.411,1.415,1.4223,1.4283,1.4388,1.4399,1.4451,1.4491,1.4532,1.4574,1.4539,1.4542,1.4542,1.466,1.465,1.4658,1.4592,1.4594,1.4595,1.4652,0,1.365,1.3776,1.3832,1.3933,1.4,1.4047,1.4108,1.4176,1.4225,1.429,1.4344,1.4417,1.4426,1.4458,1.4501,1.456,1.4599,1.4557,1.4648,1.4651,1.4624,1.4669,1.466,1.471,1.4661,1.4662,1.4663,0,1.3725,1.3798,1.3906,1.4,1.403,1.4084,1.4167,1.4228,1.4307,1.434,1.4398,1.4436,1.4511,1.4505,1.4608,1.4578,1.4619,1.4654,1.4657,1.4667,1.4658,1.468,1.4728,1.4735,1.4677,1.4676,1.4675,0,1.3724,1.3849,1.393,1.3969,1.408,1.4116,1.4164,1.4242,1.4291,1.4364,1.4396,1.4477,1.4521,1.4583,1.4641,1.4631,1.4739,1.4738,1.4768,1.4767,1.4788,1.4786,1.4842,1.4816,1.4816,1.4815,1.4815,0,1.3774,1.3838,1.3931,1.398,1.4053,1.4117,1.4187,1.4238,1.4307,1.4367,1.4413,1.4468,1.4543,1.4608,1.4654,1.4733,1.4752,1.4781,1.4792,1.4776,1.4773,1.4803,1.4801,1.4818,1.4817,1.4817,1.4816,0,1.3784,1.3849,1.394,1.4037,1.4064,1.4113,1.4197,1.4246,1.4298,1.4373,1.4395,1.4475,1.4554,1.4619,1.4722,1.4753,1.4835,1.4849,1.4808,1.4814,1.484,1.4837,1.4918,1.4932,1.4896,1.4896,1.4896,0,1.3811,1.3861,1.3965,1.4008,1.4055,1.4125,1.4175,1.4239,1.4289,1.4383,1.4421,1.4503,1.4572,1.4696,1.4763,1.4842,1.4858,1.4881,1.487,1.4852,1.4858,1.4853,1.4859,1.4881,1.4882,1.4882,1.4882,0,1.3852,1.3882,1.3952,1.4033,1.4091,1.4158,1.4226,1.4259,1.4336,1.439,1.4471,1.4524,1.463,1.471,1.4797,1.4846,1.4877,1.4885,1.4896,1.488,1.4854,1.4867,1.481,1.4882,1.4882,1.4882,1.4882,1.4882,1.3871,1.3918,1.3998,1.4074,1.4132,1.4195,1.4246,1.4304,1.4373,1.4464,1.4498,1.4581,1.4658,1.4778,1.4827,1.4893,1.4897,1.4913,1.4917,1.492,1.4917,1.4844,1.4909,1.4909,1.4909,1.4909,1.4909,0,1.3914,1.3968,1.4037,1.4131,1.4191,1.4215,1.4292,1.434,1.4413,1.4483,1.455,1.4643,1.4721,1.4795,1.4877,1.4916,1.4932,1.4935,1.4932,1.4943,1.491,1.4891,1.492,1.492,1.492,1.492,1.492,1.492,1.3943,1.4023,1.4062,1.4172,1.4226,1.4307,1.4349,1.4407,1.4463,1.4565,1.463,1.4678,1.475,1.4837,1.491,1.493,1.4958,1.4957,1.498,1.4948,1.4946,1.4944,1.4927,1.4963,1.4963,1.5009,1.5009,1.5009]},{"header":{"parameterUnit":"m.s-1","parameterCategory":1,"la1":30.2991,"la2":30.254,"lo1":-89.0895,"lo2":-89.0444,"dy":0.0017,"dx":0.0017,"nx":28,"ny":28,"refTime":"2023-08-12T03:00:00:Z","depth":0,"parameterNumber":3,"parameterNumberName":"V-component_of_WINDS"},"data":[0,0,0,0,0,0,0,0,0,0,0,0,0,0,0,0,0,0,0,0,0,0,0,0,0,0,0,0,0,0,0,0,0,0,0,0,0,0,0,0,0,0,0,0,0,0,0,0,0,0,0,0,0,0,0,0,0,0,5.5468,5.5467,0,5.5427,5.5426,5.5426,5.5344,5.5343,5.5341,5.534,5.53,5.53,5.5301,0,0,0,0,0,0,0,0,0,0,0,0,0,5.5478,5.5478,5.5468,5.5467,5.5467,5.5427,5.5426,5.5426,5.5345,5.5343,5.5341,5.5339,5.53,5.53,5.5301,0,0,0,0,0,0,0,0,0,0,0,0,0,5.5459,5.5478,5.5468,5.5421,5.5417,5.5427,5.5426,5.5425,5.5345,5.5343,5.534,5.5338,5.5299,5.53,5.5301,5.5353,0,0,5.5303,5.5303,0,0,0,0,0,0,0,0,5.546,5.5459,5.5429,5.5425,5.5419,5.5388,5.5415,5.5401,5.5346,5.5372,5.534,5.5337,5.5331,5.5329,5.5327,5.5351,5.535,5.5303,5.5303,5.5304,5.5304,0,0,0,0,0,0,0,5.5462,5.546,5.5451,5.5428,5.5423,5.5403,5.5398,5.5412,5.5366,5.537,5.5364,5.536,5.5328,5.5326,5.5325,5.5349,5.5303,5.5303,5.5304,5.5304,5.5414,5.5417,0,0,0,0,0,0,5.5469,5.5462,5.5453,5.545,5.5434,5.5405,5.5399,5.5401,5.5366,5.5358,5.5362,5.5356,5.5326,5.5325,5.5324,5.5382,5.5304,5.5304,5.5305,5.5412,5.5415,5.5418,0,0,0,0,0,0,5.547,5.5469,5.5454,5.5454,5.5451,5.5408,5.541,5.5401,5.5399,5.536,5.5351,5.5368,5.5325,5.5323,5.5346,5.538,5.5304,5.5305,5.5409,5.5413,5.5416,5.55,0,0,0,0,0,0,5.5471,5.547,5.5489,5.5455,5.5451,5.5477,5.5412,5.5402,5.54,5.5392,5.5363,5.5356,5.5322,5.5346,5.5347,5.5379,5.5306,5.5406,5.5411,5.5415,5.5494,5.5506,5.5517,0,0,0,0,0,5.5471,5.5515,5.549,5.549,5.5474,5.5479,5.5477,5.5437,5.5403,5.5422,5.5397,5.5357,5.5376,5.5349,5.535,5.5382,5.5403,5.5409,5.5415,5.5489,5.5504,5.5516,0,0,0,0,0,0,5.5554,5.5509,5.5482,5.5516,5.5502,5.5466,5.5488,5.5454,5.545,5.5442,5.5393,5.5387,5.5417,5.5402,5.5373,5.5431,5.5383,5.539,5.544,5.5453,5.5464,5.5467,5.5306,0,0,0,0,0,5.5576,5.5584,5.5545,5.5578,5.5573,5.5532,5.5533,5.5503,5.5487,5.5481,5.5457,5.5444,5.5446,5.5449,5.545,5.5492,5.5484,5.5515,5.5526,5.5536,5.5541,5.5562,5.5575,5.5436,5.5436,5.5436,0,0,5.5622,5.5599,5.5606,5.5594,5.558,5.5589,5.5528,5.554,5.5547,5.5483,5.5503,5.5486,5.5468,5.5501,5.5514,5.5489,5.5578,5.5543,5.5551,5.5551,5.5569,5.5582,5.5594,5.544,5.544,5.5439,0,0,5.571,5.5693,5.5719,5.5706,5.5685,5.5658,5.5664,5.5633,5.5619,5.5639,5.5591,5.5599,5.5604,5.5593,5.5588,5.5673,5.5636,5.5675,5.5733,5.5754,5.5765,5.5774,5.5803,5.5815,5.5681,5.5681,5.5681,0,5.577,5.5781,5.5737,5.5752,5.5748,5.5691,5.5717,5.5707,5.5687,5.5686,5.5659,5.5664,5.5648,5.5678,5.5698,5.5697,5.5702,5.5677,5.5767,5.5776,5.5784,5.5811,5.5822,5.5685,5.5685,5.5684,5.5684,0,5.5855,5.5864,5.5887,5.5869,5.5868,5.5889,5.5849,5.5853,5.5824,5.58,5.5821,5.5799,5.5794,5.5799,5.5771,5.5825,5.581,5.5775,5.5726,5.5802,5.5827,5.5838,5.5692,5.5691,5.5689,5.5688,0,0,5.5992,5.595,5.5959,5.595,5.5923,5.593,5.5948,5.5943,5.5947,5.5936,5.5951,5.5957,5.5925,5.592,5.589,5.5908,5.5976,5.5871,5.587,5.5891,5.6033,5.6058,5.6071,5.5952,5.5954,5.5955,5.6034,0,5.6073,5.6101,5.6063,5.61,5.6107,5.6053,5.6069,5.6055,5.6034,5.6037,5.6014,5.6019,5.5976,5.5973,5.5989,5.5964,5.6004,5.5958,5.5964,5.5965,5.5969,5.6084,5.6111,5.6186,5.6044,5.6045,5.6047,0,5.6171,5.6164,5.6202,5.6172,5.6174,5.6189,5.6181,5.6185,5.6168,5.6151,5.6146,5.611,5.6126,5.608,5.6102,5.6072,5.6073,5.6061,5.6063,5.6061,5.601,5.6084,5.621,5.6221,5.6062,5.6061,5.6059,0,5.6266,5.6267,5.6289,5.6283,5.625,5.6261,5.6248,5.6229,5.6228,5.6221,5.622,5.6216,5.6214,5.6211,5.6176,5.6145,5.6202,5.6153,5.6189,5.619,5.6202,5.6201,5.6328,5.6205,5.6205,5.6204,5.6204,0,5.636,5.6385,5.6331,5.6345,5.6371,5.6327,5.6355,5.6336,5.632,5.6329,5.6283,5.6293,5.6246,5.6251,5.6224,5.6246,5.6246,5.6232,5.6224,5.6236,5.6237,5.6234,5.6228,5.6207,5.6207,5.6206,5.6206,0,5.647,5.6435,5.6455,5.6422,5.6415,5.6436,5.6407,5.6419,5.6395,5.6408,5.6408,5.637,5.6374,5.6339,5.6336,5.6317,5.6352,5.6336,5.6358,5.6352,5.6389,5.6386,5.6518,5.6532,5.6401,5.6402,5.6403,0,5.6531,5.6549,5.6517,5.652,5.6509,5.6514,5.6513,5.6471,5.6472,5.6454,5.6468,5.6468,5.6465,5.6474,5.6447,5.6444,5.6427,5.6473,5.6426,5.6437,5.6426,5.6425,5.6427,5.6483,5.6484,5.6486,5.6487,0,5.6643,5.6625,5.6624,5.6618,5.6618,5.6611,5.6602,5.6607,5.6561,5.6565,5.6567,5.6566,5.6563,5.6563,5.6556,5.6543,5.6507,5.6502,5.651,5.6521,5.6532,5.6526,5.6383,5.6499,5.6498,5.6497,5.6496,5.6496,5.6729,5.6743,5.6723,5.6724,5.6712,5.6704,5.6713,5.669,5.6692,5.6686,5.6661,5.6669,5.6652,5.6638,5.6628,5.6634,5.6611,5.6623,5.6626,5.6629,5.6635,5.6533,5.6632,5.6632,5.6631,5.6631,5.6631,0,5.6838,5.6823,5.6825,5.6812,5.6813,5.678,5.6768,5.6771,5.6778,5.6765,5.6763,5.6767,5.6767,5.674,5.6738,5.6747,5.6731,5.6748,5.6746,5.6743,5.6656,5.6649,5.6761,5.6761,5.6761,5.6761,5.6761,5.6761,5.6895,5.6915,5.6895,5.6909,5.6894,5.69,5.6896,5.6889,5.6878,5.6884,5.6884,5.6866,5.6848,5.6843,5.6842,5.6834,5.6835,5.6857,5.6844,5.6762,5.675,5.6738,5.6731,5.6858,5.6858,5.693,5.6931,5.6932]}]]